RYR19LK GCLP-LEVC

Flight info

Callsign RYR19LK
Flight time 2h 18m
Altitude 36000
Route KORAL UG5 SONSO DCT NIRAL UN871 OSDAM UM985 BARPA DCT XAVIR DCT PIMOS DCT RIXUR DCT PEPAS DCT ARPEX DCT KOSEL DCT BUDIT DCT ETURA DCT XEBAR DCT POBOS DCT ASTRO
Aircraft B738/M-SDE2E3FGHIRWXY/LB1

Departure

Time 2026-05-05 11:39
Airport Gran Canaria Airport (GCLP)

Arrival

Time 2026-05-05 13:58
Airport Valencia Airport (LEVC)
Time Latitude Longitude Altitude Speed Heading
2026-05-05 11:07 27.93938 -15.38779 85 ft 0 kts 291°
2026-05-05 11:28 27.93936 -15.38773 88 ft 4 kts 291°
2026-05-05 11:29 27.93926 -15.38744 87 ft 4 kts 292°
2026-05-05 11:29 27.93919 -15.38721 88 ft 4 kts 270°
2026-05-05 11:29 27.93927 -15.38696 88 ft 4 kts 221°
2026-05-05 11:29 27.93949 -15.38680 86 ft 4 kts 202°
2026-05-05 11:30 27.93956 -15.38677 86 ft 1 kts 201°
2026-05-05 11:32 27.93948 -15.38681 86 ft 2 kts 201°
2026-05-05 11:32 27.93923 -15.38692 87 ft 6 kts 201°
2026-05-05 11:32 27.93876 -15.38712 85 ft 9 kts 201°
2026-05-05 11:33 27.93806 -15.38743 83 ft 12 kts 201°
2026-05-05 11:33 27.93715 -15.38784 87 ft 16 kts 201°
2026-05-05 11:33 27.93620 -15.38825 84 ft 16 kts 201°
2026-05-05 11:33 27.93520 -15.38867 85 ft 15 kts 195°
2026-05-05 11:34 27.93435 -15.38827 81 ft 16 kts 113°
2026-05-05 11:34 27.93369 -15.38772 74 ft 15 kts 200°
2026-05-05 11:34 27.93261 -15.38818 69 ft 18 kts 201°
2026-05-05 11:34 27.93136 -15.38880 67 ft 21 kts 208°
2026-05-05 11:35 27.93005 -15.38939 78 ft 21 kts 201°
2026-05-05 11:35 27.92867 -15.39000 81 ft 21 kts 200°
2026-05-05 11:35 27.92738 -15.39057 88 ft 15 kts 201°
2026-05-05 11:35 27.92639 -15.39101 92 ft 15 kts 201°
2026-05-05 11:36 27.92540 -15.39145 93 ft 16 kts 200°
2026-05-05 11:36 27.92434 -15.39191 96 ft 17 kts 201°
2026-05-05 11:36 27.92325 -15.39240 98 ft 17 kts 201°
2026-05-05 11:36 27.92211 -15.39290 98 ft 15 kts 201°
2026-05-05 11:37 27.92099 -15.39306 93 ft 18 kts 174°
2026-05-05 11:37 27.91968 -15.39296 92 ft 18 kts 174°
2026-05-05 11:37 27.91892 -15.39205 84 ft 17 kts 111°
2026-05-05 11:37 27.91858 -15.39108 84 ft 9 kts 112°
2026-05-05 11:38 27.91841 -15.39065 76 ft 5 kts 112°
2026-05-05 11:38 27.91833 -15.39032 72 ft 5 kts 81°
2026-05-05 11:38 27.91866 -15.39014 76 ft 8 kts 22°
2026-05-05 11:38 27.92101 -15.38910 66 ft 74 kts 21°
2026-05-05 11:39 27.92811 -15.38597 45 ft 142 kts 21°
2026-05-05 11:39 27.93836 -15.38134 491 ft 164 kts 24°
2026-05-05 11:39 27.94914 -15.37623 1358 ft 170 kts 22°
2026-05-05 11:39 27.96071 -15.37089 1893 ft 194 kts 21°
2026-05-05 11:40 27.97438 -15.36541 2122 ft 222 kts 19°
2026-05-05 11:40 27.98942 -15.35958 2634 ft 234 kts 19°
2026-05-05 11:40 28.00487 -15.35354 3365 ft 236 kts 19°
2026-05-05 11:40 28.02067 -15.34732 3810 ft 249 kts 19°
2026-05-05 11:41 28.03765 -15.34060 3992 ft 262 kts 19°
2026-05-05 11:41 28.05490 -15.33337 4029 ft 266 kts 21°
2026-05-05 11:41 28.07240 -15.32572 4563 ft 272 kts 21°
2026-05-05 11:41 28.08983 -15.31809 5464 ft 273 kts 20°
2026-05-05 11:42 28.10780 -15.31026 6251 ft 280 kts 20°
2026-05-05 11:42 28.12615 -15.30227 6999 ft 285 kts 20°
2026-05-05 11:42 28.14363 -15.29129 7717 ft 293 kts 42°
2026-05-05 11:42 28.15664 -15.27323 8463 ft 299 kts 55°
2026-05-05 11:43 28.16840 -15.25342 9167 ft 307 kts 57°
2026-05-05 11:43 28.18018 -15.23289 9877 ft 314 kts 57°
2026-05-05 11:43 28.19223 -15.21179 10453 ft 326 kts 57°
2026-05-05 11:43 28.20504 -15.18943 10680 ft 349 kts 57°
2026-05-05 11:44 28.21852 -15.16604 11227 ft 358 kts 56°
2026-05-05 11:44 28.23232 -15.14217 11876 ft 365 kts 56°
2026-05-05 11:44 28.24639 -15.11793 12539 ft 371 kts 56°
2026-05-05 11:44 28.26070 -15.09330 13186 ft 377 kts 56°
2026-05-05 11:45 28.27530 -15.06821 13831 ft 384 kts 55°
2026-05-05 11:45 28.29012 -15.04276 14422 ft 390 kts 55°
2026-05-05 11:45 28.30515 -15.01693 15052 ft 394 kts 55°
2026-05-05 11:45 28.32016 -14.99111 15673 ft 399 kts 55°
2026-05-05 11:46 28.33576 -14.96429 16282 ft 405 kts 55°
2026-05-05 11:46 28.35136 -14.93743 16883 ft 410 kts 55°
2026-05-05 11:46 28.36696 -14.91056 17472 ft 415 kts 55°
2026-05-05 11:46 28.38294 -14.88302 18077 ft 420 kts 55°
2026-05-05 11:47 28.39911 -14.85514 18633 ft 425 kts 55°
2026-05-05 11:47 28.41548 -14.82689 19154 ft 430 kts 55°
2026-05-05 11:47 28.43199 -14.79837 19673 ft 434 kts 55°
2026-05-05 11:47 28.44868 -14.76954 20190 ft 439 kts 55°
2026-05-05 11:48 28.48258 -14.71089 21198 ft 448 kts 56°
2026-05-05 11:48 28.49980 -14.68107 21695 ft 453 kts 56°
2026-05-05 11:48 28.51127 -14.66119 22023 ft 456 kts 56°
2026-05-05 11:49 28.52875 -14.63089 22490 ft 461 kts 56°
2026-05-05 11:49 28.54641 -14.60024 22963 ft 465 kts 56°
2026-05-05 11:49 28.56421 -14.56934 23426 ft 470 kts 56°
2026-05-05 11:49 28.58221 -14.53806 23844 ft 474 kts 56°
2026-05-05 11:50 28.60035 -14.50652 24244 ft 478 kts 56°
2026-05-05 11:50 28.61860 -14.47476 24675 ft 480 kts 56°
2026-05-05 11:50 28.63689 -14.44291 25101 ft 483 kts 56°
2026-05-05 11:50 28.65530 -14.41081 25507 ft 486 kts 55°
2026-05-05 11:51 28.67382 -14.37851 25893 ft 489 kts 55°
2026-05-05 11:51 28.69248 -14.34595 26276 ft 492 kts 55°
2026-05-05 11:51 28.71124 -14.31318 26661 ft 495 kts 55°
2026-05-05 11:51 28.73009 -14.28023 27039 ft 498 kts 55°
2026-05-05 11:52 28.74906 -14.24702 27412 ft 501 kts 55°
2026-05-05 11:52 28.76813 -14.21364 27772 ft 504 kts 55°
2026-05-05 11:52 28.78708 -14.18044 28127 ft 507 kts 55°
2026-05-05 11:52 28.80636 -14.14662 28478 ft 510 kts 55°
2026-05-05 11:53 28.82573 -14.11262 28820 ft 513 kts 55°
2026-05-05 11:53 28.84522 -14.07838 29156 ft 516 kts 55°
2026-05-05 11:53 28.86484 -14.04389 29494 ft 519 kts 55°
2026-05-05 11:53 28.88454 -14.00923 29825 ft 521 kts 55°
2026-05-05 11:54 28.90435 -13.97434 30133 ft 524 kts 55°
2026-05-05 11:54 28.92419 -13.93937 30398 ft 527 kts 55°
2026-05-05 11:54 28.94416 -13.90413 30673 ft 529 kts 55°
2026-05-05 11:54 28.96418 -13.86879 30939 ft 531 kts 55°
2026-05-05 11:55 28.98424 -13.83334 31195 ft 533 kts 55°
2026-05-05 11:55 29.00444 -13.79761 31445 ft 536 kts 55°
2026-05-05 11:55 29.02469 -13.76176 31707 ft 538 kts 55°
2026-05-05 11:55 29.04474 -13.72624 32000 ft 539 kts 55°
2026-05-05 11:56 29.06504 -13.69023 32331 ft 538 kts 55°
2026-05-05 11:56 29.08527 -13.65432 32718 ft 536 kts 55°
2026-05-05 11:56 29.10545 -13.61846 33084 ft 535 kts 55°
2026-05-05 11:56 29.12560 -13.58264 33403 ft 535 kts 55°
2026-05-05 11:57 29.14574 -13.54681 33686 ft 536 kts 55°
2026-05-05 11:57 29.16589 -13.51095 33979 ft 536 kts 55°
2026-05-05 11:57 29.18640 -13.47541 34258 ft 534 kts 53°
2026-05-05 11:57 29.20761 -13.44047 34458 ft 534 kts 51°
2026-05-05 11:58 29.22914 -13.40582 34692 ft 534 kts 51°
2026-05-05 11:58 29.25071 -13.37126 34939 ft 534 kts 51°
2026-05-05 11:58 29.27222 -13.33663 35195 ft 533 kts 51°
2026-05-05 11:58 29.29365 -13.30187 35423 ft 534 kts 51°
2026-05-05 11:59 29.31495 -13.26707 35649 ft 534 kts 51°
2026-05-05 11:59 29.33619 -13.23222 35881 ft 533 kts 51°
2026-05-05 11:59 29.35744 -13.19724 36084 ft 534 kts 51°
2026-05-05 11:59 29.37873 -13.16217 36068 ft 538 kts 51°
2026-05-05 12:00 29.42150 -13.09165 36076 ft 538 kts 51°
2026-05-05 12:00 29.46391 -13.02158 36063 ft 531 kts 51°
2026-05-05 12:01 29.50573 -12.95244 36082 ft 530 kts 51°
2026-05-05 12:01 29.54771 -12.88295 36077 ft 529 kts 51°
2026-05-05 12:02 29.58970 -12.81332 36077 ft 529 kts 51°
2026-05-05 12:02 29.63162 -12.74366 36079 ft 530 kts 51°
2026-05-05 12:03 29.67353 -12.67389 36078 ft 531 kts 51°
2026-05-05 12:03 29.71552 -12.60389 36074 ft 532 kts 51°
2026-05-05 12:04 29.75747 -12.53364 36076 ft 533 kts 52°
2026-05-05 12:04 29.79931 -12.46298 36084 ft 534 kts 52°
2026-05-05 12:05 29.84121 -12.39206 36077 ft 536 kts 52°
2026-05-05 12:05 29.88315 -12.32102 36071 ft 536 kts 52°
2026-05-05 12:06 29.92509 -12.24987 36070 ft 536 kts 52°
2026-05-05 12:06 29.96699 -12.17867 36067 ft 536 kts 52°
2026-05-05 12:07 30.00917 -12.10782 36067 ft 534 kts 48°
2026-05-05 12:07 30.05943 -12.04615 36083 ft 524 kts 37°
2026-05-05 12:08 30.11207 -11.98876 36069 ft 524 kts 37°
2026-05-05 12:08 30.16497 -11.93080 36066 ft 524 kts 37°
2026-05-05 12:09 30.21739 -11.87236 36071 ft 524 kts 38°
2026-05-05 12:09 30.26964 -11.81360 36075 ft 523 kts 38°
2026-05-05 12:10 30.32178 -11.75483 36065 ft 523 kts 38°
2026-05-05 12:10 30.37390 -11.69604 36069 ft 523 kts 38°
2026-05-05 12:11 30.42596 -11.63726 36063 ft 522 kts 38°
2026-05-05 12:11 30.47801 -11.57842 36071 ft 522 kts 38°
2026-05-05 12:12 30.53004 -11.51951 36070 ft 522 kts 38°
2026-05-05 12:12 30.58166 -11.46096 36077 ft 522 kts 38°
2026-05-05 12:13 30.63368 -11.40185 36070 ft 523 kts 38°
2026-05-05 12:13 30.68561 -11.34278 36066 ft 523 kts 38°
2026-05-05 12:14 30.73754 -11.28359 36067 ft 523 kts 38°
2026-05-05 12:14 30.78951 -11.22427 36067 ft 523 kts 38°
2026-05-05 12:15 30.84141 -11.16492 36066 ft 523 kts 38°
2026-05-05 12:15 30.89291 -11.10595 36062 ft 523 kts 38°
2026-05-05 12:16 30.94480 -11.04644 36065 ft 523 kts 38°
2026-05-05 12:16 30.99663 -10.98689 36063 ft 523 kts 38°
2026-05-05 12:17 31.04837 -10.92735 36063 ft 523 kts 38°
2026-05-05 12:17 31.10007 -10.86777 36061 ft 522 kts 38°
2026-05-05 12:18 31.15174 -10.80812 36063 ft 522 kts 38°
2026-05-05 12:18 31.20333 -10.74847 36064 ft 521 kts 38°
2026-05-05 12:19 31.25484 -10.68881 36064 ft 521 kts 38°
2026-05-05 12:19 31.30627 -10.62915 36064 ft 520 kts 38°
2026-05-05 12:20 31.35729 -10.56987 36066 ft 520 kts 38°
2026-05-05 12:20 31.40858 -10.51017 36061 ft 519 kts 38°
2026-05-05 12:21 31.45975 -10.45053 36066 ft 519 kts 39°
2026-05-05 12:21 31.51088 -10.39082 36061 ft 518 kts 39°
2026-05-05 12:22 31.56188 -10.33118 36062 ft 518 kts 39°
2026-05-05 12:22 31.61282 -10.27151 36066 ft 517 kts 39°
2026-05-05 12:23 31.66367 -10.21183 36065 ft 516 kts 39°
2026-05-05 12:23 31.71443 -10.15218 36067 ft 516 kts 39°
2026-05-05 12:24 31.76509 -10.09254 36065 ft 515 kts 39°
2026-05-05 12:24 31.81572 -10.03284 36066 ft 514 kts 39°
2026-05-05 12:25 31.86614 -9.97329 36065 ft 514 kts 39°
2026-05-05 12:25 31.91651 -9.91369 36063 ft 513 kts 39°
2026-05-05 12:26 31.96683 -9.85408 36063 ft 513 kts 39°
2026-05-05 12:26 32.01705 -9.79446 36068 ft 512 kts 39°
2026-05-05 12:27 32.06688 -9.73522 36064 ft 511 kts 39°
2026-05-05 12:27 32.11692 -9.67563 36068 ft 511 kts 39°
2026-05-05 12:28 32.16689 -9.61602 36067 ft 510 kts 39°
2026-05-05 12:28 32.21674 -9.55646 36066 ft 510 kts 39°
2026-05-05 12:29 32.26658 -9.49681 36067 ft 509 kts 40°
2026-05-05 12:29 32.31625 -9.43726 36069 ft 508 kts 40°
2026-05-05 12:30 32.36584 -9.37773 36066 ft 508 kts 40°
2026-05-05 12:30 32.41535 -9.31818 36067 ft 507 kts 40°
2026-05-05 12:31 32.46478 -9.25862 36067 ft 507 kts 40°
2026-05-05 12:31 32.51414 -9.19905 36074 ft 506 kts 40°
2026-05-05 12:32 32.56311 -9.13986 36075 ft 506 kts 40°
2026-05-05 12:32 32.61238 -9.08021 36068 ft 506 kts 40°
2026-05-05 12:33 32.66160 -9.02051 36073 ft 506 kts 40°
2026-05-05 12:33 32.71079 -8.96074 36071 ft 506 kts 40°
2026-05-05 12:34 32.75993 -8.90095 36075 ft 505 kts 40°
2026-05-05 12:34 32.80901 -8.84112 36072 ft 505 kts 40°
2026-05-05 12:35 32.85791 -8.78141 36086 ft 504 kts 40°
2026-05-05 12:35 32.90676 -8.72166 36076 ft 503 kts 40°
2026-05-05 12:36 32.94727 -8.67203 36082 ft 502 kts 40°
2026-05-05 12:36 32.99590 -8.61237 36079 ft 502 kts 41°
2026-05-05 12:37 33.04445 -8.55270 36071 ft 501 kts 41°
2026-05-05 12:37 33.09292 -8.49303 36078 ft 500 kts 41°
2026-05-05 12:38 33.14130 -8.43337 36077 ft 500 kts 41°
2026-05-05 12:38 33.18998 -8.37417 36079 ft 497 kts 37°
2026-05-05 12:39 33.21683 -8.34871 36066 ft 488 kts 26°
2026-05-05 12:39 33.24533 -8.32695 36089 ft 486 kts 25°
2026-05-05 12:39 33.30252 -8.28499 36075 ft 485 kts 25°
2026-05-05 12:40 33.35994 -8.24265 36078 ft 485 kts 25°
2026-05-05 12:40 33.41711 -8.19977 36076 ft 485 kts 26°
2026-05-05 12:41 33.47407 -8.15667 36082 ft 484 kts 26°
2026-05-05 12:41 33.53087 -8.11358 36080 ft 482 kts 27°
2026-05-05 12:42 33.58750 -8.07058 36080 ft 481 kts 27°
2026-05-05 12:42 33.64394 -8.02768 36081 ft 479 kts 27°
2026-05-05 12:43 33.70016 -7.98488 36082 ft 478 kts 27°
2026-05-05 12:43 33.75616 -7.94219 36085 ft 476 kts 27°
2026-05-05 12:44 33.81168 -7.89980 36084 ft 474 kts 28°
2026-05-05 12:44 33.86733 -7.85723 36084 ft 473 kts 28°
2026-05-05 12:45 33.92271 -7.81481 36091 ft 471 kts 28°
2026-05-05 12:45 33.97797 -7.77242 36087 ft 470 kts 28°
2026-05-05 12:46 34.03313 -7.73004 36086 ft 469 kts 28°
2026-05-05 12:46 34.08812 -7.68772 36083 ft 468 kts 28°
2026-05-05 12:47 34.14299 -7.64543 36082 ft 468 kts 28°
2026-05-05 12:47 34.19789 -7.60305 36088 ft 468 kts 28°
2026-05-05 12:48 34.25275 -7.56063 36094 ft 468 kts 29°
2026-05-05 12:48 34.30760 -7.51816 36087 ft 468 kts 29°
2026-05-05 12:49 34.36245 -7.47561 36088 ft 468 kts 29°
2026-05-05 12:49 34.41736 -7.43295 36088 ft 469 kts 29°
2026-05-05 12:50 34.47189 -7.39052 36088 ft 469 kts 29°
2026-05-05 12:50 34.52680 -7.34773 36089 ft 469 kts 29°
2026-05-05 12:51 34.58178 -7.30482 36088 ft 470 kts 29°
2026-05-05 12:51 34.63672 -7.26186 36088 ft 470 kts 29°
2026-05-05 12:52 34.69174 -7.21877 36091 ft 470 kts 29°
2026-05-05 12:52 34.74671 -7.17566 36088 ft 470 kts 29°
2026-05-05 12:53 34.80173 -7.13244 36091 ft 470 kts 29°
2026-05-05 12:53 34.85670 -7.08918 36091 ft 470 kts 29°
2026-05-05 12:54 34.93871 -7.02452 36088 ft 470 kts 29°
2026-05-05 12:55 34.99392 -6.98090 36092 ft 470 kts 29°
2026-05-05 12:55 35.04845 -6.93775 36089 ft 469 kts 29°
2026-05-05 12:56 35.10318 -6.89436 36087 ft 469 kts 29°
2026-05-05 12:56 35.15788 -6.85093 36081 ft 469 kts 29°
2026-05-05 12:57 35.21258 -6.80743 36084 ft 469 kts 29°
2026-05-05 12:57 35.26727 -6.76386 36080 ft 469 kts 29°
2026-05-05 12:58 35.32153 -6.71943 36069 ft 471 kts 36°
2026-05-05 12:58 35.36652 -6.66051 36067 ft 478 kts 55°
2026-05-05 12:59 35.39980 -6.58986 36075 ft 479 kts 59°
2026-05-05 12:59 35.43262 -6.51881 36069 ft 479 kts 58°
2026-05-05 13:00 35.48419 -6.41447 36069 ft 479 kts 56°
2026-05-05 13:01 35.55507 -6.27560 36062 ft 480 kts 56°
2026-05-05 13:01 35.59028 -6.20577 36055 ft 481 kts 56°
2026-05-05 13:02 35.62544 -6.13580 36054 ft 481 kts 56°
2026-05-05 13:02 35.66060 -6.06573 36051 ft 482 kts 57°
2026-05-05 13:03 35.69574 -5.99557 36048 ft 482 kts 57°
2026-05-05 13:03 35.73088 -5.92525 36046 ft 482 kts 57°
2026-05-05 13:04 35.76171 -5.85174 36061 ft 484 kts 64°
2026-05-05 13:04 35.79029 -5.77652 36050 ft 485 kts 64°
2026-05-05 13:05 35.81942 -5.70155 36050 ft 485 kts 63°
2026-05-05 13:05 35.84906 -5.62669 36021 ft 485 kts 62°
2026-05-05 13:06 35.87912 -5.55279 36022 ft 485 kts 62°
2026-05-05 13:06 35.90932 -5.47846 36022 ft 485 kts 62°
2026-05-05 13:07 35.93936 -5.40403 36023 ft 484 kts 62°
2026-05-05 13:07 35.96929 -5.32954 36023 ft 484 kts 62°
2026-05-05 13:08 35.99919 -5.25505 36020 ft 484 kts 62°
2026-05-05 13:08 36.02970 -5.18079 36021 ft 484 kts 61°
2026-05-05 13:09 36.06079 -5.10707 36017 ft 484 kts 61°
2026-05-05 13:09 36.09174 -5.03318 36013 ft 484 kts 61°
2026-05-05 13:10 36.12256 -4.95912 36012 ft 484 kts 61°
2026-05-05 13:10 36.15567 -4.88676 35994 ft 482 kts 51°
2026-05-05 13:11 36.20007 -4.82605 36007 ft 478 kts 42°
2026-05-05 13:11 36.24684 -4.76733 36002 ft 479 kts 42°
2026-05-05 13:12 36.29346 -4.70813 35999 ft 480 kts 42°
2026-05-05 13:12 36.33987 -4.64833 35992 ft 482 kts 43°
2026-05-05 13:13 36.38626 -4.58819 35985 ft 483 kts 43°
2026-05-05 13:13 36.43275 -4.52778 35981 ft 484 kts 43°
2026-05-05 13:14 36.47929 -4.46724 35979 ft 485 kts 43°
2026-05-05 13:14 36.52585 -4.40658 35972 ft 485 kts 43°
2026-05-05 13:15 36.57247 -4.34573 35968 ft 486 kts 43°
2026-05-05 13:15 36.61896 -4.28493 35970 ft 486 kts 43°
2026-05-05 13:16 36.66568 -4.22371 35953 ft 486 kts 43°
2026-05-05 13:16 36.71189 -4.16305 35976 ft 486 kts 43°
2026-05-05 13:17 36.75842 -4.10186 35970 ft 486 kts 43°
2026-05-05 13:17 36.80495 -4.04056 35987 ft 487 kts 43°
2026-05-05 13:18 36.85154 -3.97906 35983 ft 487 kts 43°
2026-05-05 13:18 36.89813 -3.91744 35995 ft 488 kts 43°
2026-05-05 13:19 36.94470 -3.85571 35999 ft 488 kts 43°
2026-05-05 13:19 36.99128 -3.79387 36012 ft 488 kts 43°
2026-05-05 13:20 37.03760 -3.73225 36015 ft 488 kts 43°
2026-05-05 13:20 37.08407 -3.67031 36024 ft 488 kts 43°
2026-05-05 13:21 37.13074 -3.60851 36023 ft 488 kts 42°
2026-05-05 13:21 37.17815 -3.54752 36023 ft 488 kts 41°
2026-05-05 13:22 37.22550 -3.48643 36019 ft 488 kts 42°
2026-05-05 13:22 37.27280 -3.42512 36004 ft 489 kts 42°
2026-05-05 13:23 37.32013 -3.36364 35983 ft 489 kts 42°
2026-05-05 13:23 37.36741 -3.30211 35981 ft 489 kts 42°
2026-05-05 13:24 37.40669 -3.25092 35978 ft 490 kts 42°
2026-05-05 13:24 37.45399 -3.18917 35973 ft 490 kts 42°
2026-05-05 13:25 37.50123 -3.12736 35982 ft 490 kts 42°
2026-05-05 13:25 37.54854 -3.06534 35977 ft 491 kts 42°
2026-05-05 13:26 37.59589 -3.00318 35970 ft 492 kts 42°
2026-05-05 13:26 37.64332 -2.94099 35974 ft 493 kts 42°
2026-05-05 13:27 37.69092 -2.87845 35977 ft 493 kts 42°
2026-05-05 13:27 37.73810 -2.81632 35959 ft 494 kts 42°
2026-05-05 13:28 37.78557 -2.75361 35987 ft 494 kts 43°
2026-05-05 13:28 37.83294 -2.69072 35966 ft 494 kts 42°
2026-05-05 13:29 37.88030 -2.62769 35983 ft 493 kts 43°
2026-05-05 13:29 37.92728 -2.56505 35965 ft 487 kts 43°
2026-05-05 13:30 37.97388 -2.50287 35934 ft 486 kts 43°
2026-05-05 13:30 37.99732 -2.47158 35577 ft 490 kts 43°
2026-05-05 13:30 38.02070 -2.44035 35231 ft 487 kts 43°
2026-05-05 13:31 38.04388 -2.40935 34819 ft 484 kts 43°
2026-05-05 13:31 38.06696 -2.37846 34448 ft 481 kts 43°
2026-05-05 13:31 38.08996 -2.34764 34040 ft 480 kts 43°
2026-05-05 13:31 38.11289 -2.31689 33601 ft 479 kts 43°
2026-05-05 13:32 38.13571 -2.28626 33167 ft 476 kts 43°
2026-05-05 13:32 38.15836 -2.25582 32783 ft 473 kts 43°
2026-05-05 13:32 38.18124 -2.22605 32389 ft 467 kts 36°
2026-05-05 13:32 38.20686 -2.20158 32014 ft 456 kts 25°
2026-05-05 13:33 38.23453 -2.18299 31639 ft 445 kts 15°
2026-05-05 13:33 38.26333 -2.17052 31254 ft 431 kts
2026-05-05 13:33 38.29201 -2.16194 30918 ft 427 kts
2026-05-05 13:33 38.32089 -2.15366 30550 ft 424 kts
2026-05-05 13:34 38.34966 -2.14531 30186 ft 423 kts
2026-05-05 13:34 38.37828 -2.13679 29816 ft 421 kts
2026-05-05 13:34 38.40671 -2.12815 29401 ft 419 kts
2026-05-05 13:34 38.43496 -2.11948 29004 ft 416 kts
2026-05-05 13:35 38.46297 -2.11085 28632 ft 412 kts
2026-05-05 13:35 38.49074 -2.10177 28245 ft 414 kts
2026-05-05 13:35 38.51720 -2.08594 27889 ft 426 kts 25°
2026-05-05 13:35 38.54066 -2.06233 27516 ft 435 kts 41°
2026-05-05 13:36 38.56019 -2.03263 27167 ft 436 kts 47°
2026-05-05 13:36 38.57852 -2.00189 26783 ft 434 kts 49°
2026-05-05 13:36 38.59662 -1.97111 26412 ft 432 kts 48°
2026-05-05 13:36 38.61471 -1.94061 26050 ft 429 kts 47°
2026-05-05 13:37 38.63283 -1.91046 25695 ft 427 kts 47°
2026-05-05 13:37 38.65099 -1.88056 25345 ft 424 kts 47°
2026-05-05 13:37 38.66913 -1.85083 24986 ft 422 kts 47°
2026-05-05 13:37 38.68717 -1.82128 24629 ft 420 kts 46°
2026-05-05 13:38 38.70487 -1.79224 24280 ft 419 kts 46°
2026-05-05 13:38 38.72275 -1.76286 23922 ft 417 kts 46°
2026-05-05 13:38 38.74054 -1.73358 23554 ft 416 kts 46°
2026-05-05 13:38 38.75827 -1.70434 23144 ft 415 kts 46°
2026-05-05 13:39 38.77590 -1.67524 22759 ft 412 kts 47°
2026-05-05 13:39 38.79343 -1.64627 22391 ft 409 kts 47°
2026-05-05 13:39 38.81082 -1.61752 22031 ft 407 kts 47°
2026-05-05 13:39 38.82814 -1.58887 21675 ft 404 kts 47°
2026-05-05 13:40 38.84531 -1.56042 21322 ft 402 kts 47°
2026-05-05 13:40 38.86234 -1.53220 20988 ft 399 kts 48°
2026-05-05 13:40 38.87910 -1.50439 20636 ft 397 kts 48°
2026-05-05 13:40 38.89617 -1.47606 20290 ft 395 kts 48°
2026-05-05 13:41 38.91293 -1.44821 19941 ft 393 kts 49°
2026-05-05 13:41 38.92962 -1.42045 19592 ft 392 kts 49°
2026-05-05 13:41 38.94623 -1.39281 19247 ft 390 kts 49°
2026-05-05 13:41 38.96255 -1.36562 18918 ft 388 kts 49°
2026-05-05 13:42 38.97921 -1.33784 18571 ft 387 kts 49°
2026-05-05 13:42 38.99544 -1.31076 18214 ft 386 kts 50°
2026-05-05 13:42 39.01177 -1.28348 17838 ft 385 kts 50°
2026-05-05 13:42 39.02690 -1.25507 17433 ft 386 kts 64°
2026-05-05 13:43 39.03676 -1.22314 17107 ft 382 kts 70°
2026-05-05 13:43 39.04553 -1.19105 16759 ft 379 kts 71°
2026-05-05 13:43 39.05406 -1.15914 16432 ft 376 kts 71°
2026-05-05 13:43 39.06258 -1.12747 16090 ft 374 kts 71°
2026-05-05 13:44 39.07115 -1.09598 15754 ft 371 kts 70°
2026-05-05 13:44 39.07974 -1.06478 15402 ft 369 kts 70°
2026-05-05 13:44 39.08833 -1.03378 15080 ft 366 kts 70°
2026-05-05 13:44 39.09687 -1.00305 14766 ft 364 kts 70°
2026-05-05 13:45 39.10539 -0.97244 14425 ft 363 kts 70°
2026-05-05 13:45 39.11389 -0.94191 14095 ft 361 kts 70°
2026-05-05 13:45 39.12236 -0.91146 13753 ft 361 kts 70°
2026-05-05 13:45 39.13078 -0.88114 13387 ft 359 kts 70°
2026-05-05 13:46 39.13633 -0.86114 13128 ft 357 kts 70°
2026-05-05 13:46 39.13945 -0.84989 12992 ft 355 kts 70°
2026-05-05 13:46 39.14796 -0.81927 12680 ft 350 kts 70°
2026-05-05 13:47 39.15601 -0.79018 12344 ft 348 kts 70°
2026-05-05 13:47 39.16410 -0.76089 12015 ft 346 kts 70°
2026-05-05 13:47 39.17216 -0.73170 11669 ft 336 kts 70°
2026-05-05 13:47 39.17976 -0.70412 11373 ft 326 kts 70°
2026-05-05 13:48 39.18724 -0.67697 11079 ft 316 kts 70°
2026-05-05 13:48 39.19448 -0.65061 10793 ft 308 kts 70°
2026-05-05 13:48 39.20156 -0.62490 10496 ft 301 kts 70°
2026-05-05 13:48 39.20851 -0.59960 10216 ft 297 kts 70°
2026-05-05 13:49 39.21540 -0.57454 9986 ft 294 kts 70°
2026-05-05 13:49 39.22215 -0.54994 9852 ft 289 kts 70°
2026-05-05 13:49 39.22885 -0.52547 9541 ft 290 kts 70°
2026-05-05 13:49 39.23557 -0.50089 9252 ft 291 kts 70°
2026-05-05 13:50 39.24531 -0.47851 8997 ft 282 kts 44°
2026-05-05 13:50 39.25838 -0.46022 8763 ft 277 kts 53°
2026-05-05 13:50 39.26906 -0.43948 8499 ft 278 kts 57°
2026-05-05 13:50 39.27946 -0.41812 8223 ft 285 kts 57°
2026-05-05 13:51 39.29021 -0.39662 7942 ft 284 kts 56°
2026-05-05 13:51 39.30109 -0.37541 7469 ft 285 kts 55°
2026-05-05 13:51 39.31226 -0.35388 6854 ft 291 kts 55°
2026-05-05 13:51 39.32361 -0.33202 6249 ft 295 kts 56°
2026-05-05 13:52 39.33487 -0.30976 5636 ft 298 kts 56°
2026-05-05 13:52 39.34618 -0.28718 4998 ft 301 kts 56°
2026-05-05 13:52 39.35760 -0.26437 4361 ft 302 kts 55°
2026-05-05 13:52 39.37169 -0.24483 3759 ft 294 kts 32°
2026-05-05 13:53 39.39010 -0.23530 3152 ft 280 kts
2026-05-05 13:53 39.40849 -0.23750 2756 ft 260 kts 337°
2026-05-05 13:53 39.42372 -0.24869 2352 ft 246 kts 315°
2026-05-05 13:53 39.43358 -0.26626 2202 ft 240 kts 283°
2026-05-05 13:54 39.43477 -0.28637 2178 ft 212 kts 269°
2026-05-05 13:54 39.43560 -0.30409 2157 ft 189 kts 275°
2026-05-05 13:54 39.43793 -0.32004 2123 ft 173 kts 282°
2026-05-05 13:54 39.44144 -0.33504 2107 ft 176 kts 280°
2026-05-05 13:55 39.44443 -0.35005 2065 ft 171 kts 291°
2026-05-05 13:55 39.44867 -0.36396 2151 ft 162 kts 286°
2026-05-05 13:55 39.45230 -0.37741 2013 ft 156 kts 287°
2026-05-05 13:55 39.45537 -0.39013 1593 ft 155 kts 282°
2026-05-05 13:56 39.45834 -0.40282 1426 ft 144 kts 294°
2026-05-05 13:56 39.46369 -0.41403 1101 ft 148 kts 296°
2026-05-05 13:56 39.46876 -0.42697 854 ft 165 kts 292°
2026-05-05 13:56 39.47332 -0.44013 586 ft 158 kts 298°
2026-05-05 13:57 39.47787 -0.45166 466 ft 141 kts 295°
2026-05-05 13:57 39.48185 -0.46217 310 ft 129 kts 297°
2026-05-05 13:57 39.48572 -0.47242 213 ft 114 kts 297°
2026-05-05 13:57 39.48910 -0.48104 214 ft 110 kts 297°
2026-05-05 13:58 39.49233 -0.48953 217 ft 105 kts 296°
2026-05-05 13:58 39.49452 -0.49531 213 ft 29 kts 300°
2026-05-05 13:58 39.49526 -0.49726 214 ft 20 kts 296°
2026-05-05 13:58 39.49583 -0.49874 216 ft 17 kts 296°
2026-05-05 13:59 39.49682 -0.50027 213 ft 6 kts 26°
2026-05-05 13:59 39.49725 -0.49999 215 ft 8 kts 26°
2026-05-05 14:00 39.49791 -0.49898 208 ft 7 kts 105°
2026-05-05 14:00 39.49779 -0.49860 215 ft 7 kts 115°
2026-05-05 14:00 39.49767 -0.49828 213 ft 0 kts 116°
2026-05-05 14:00 39.49216 -0.47615 214 ft 0 kts 116°